| time (UTC) | temp F | wind direction | speed knots | gust knots | rain 1hr in | rain 24hr in | rain mn in | humidity % | barometer mb |
| 20260507152024 | 60 | 340 | 3.5 | 7.0 | 0.00 | 0.00 | 0.00 | 65 | 1019.1 |
| 20260507151032 | 60 | 338 | 3.5 | 6.1 | 0.00 | 0.00 | 0.00 | 64 | 1019.2 |
| 20260507150021 | 61 | 323 | 3.5 | 7.0 | 0.00 | 0.00 | 0.00 | 64 | 1019.1 |
| 20260507145030 | 60 | 333 | 2.6 | 3.5 | 0.00 | 0.00 | 0.00 | 65 | 1019.1 |
| 20260507144023 | 59 | 349 | 0.9 | 2.6 | 0.00 | 0.00 | 0.00 | 67 | 1019.3 |
| 20260507143028 | 58 | 52 | 1.7 | 3.5 | 0.00 | 0.00 | 0.00 | 70 | 1019.3 |
| 20260507142027 | 58 | 4 | 2.6 | 7.8 | 0.00 | 0.00 | 0.00 | 70 | 1019.3 |
| 20260507141029 | 57 | 336 | 1.7 | 5.2 | 0.00 | 0.00 | 0.00 | 71 | 1019.3 |
| 20260507140017 | 57 | 317 | 4.3 | 8.7 | 0.00 | 0.00 | 0.00 | 72 | 1019.2 |
| 20260507135027 | 57 | 321 | 6.1 | 12.2 | 0.00 | 0.00 | 0.00 | 71 | 1019.2 |
| 20260507134037 | 58 | 329 | 7.8 | 13.0 | 0.00 | 0.00 | 0.00 | 67 | 1019.2 |
| 20260507133024 | 58 | 331 | 7.0 | 9.6 | 0.00 | 0.00 | 0.00 | 68 | 1019.2 |
| 20260507132033 | 58 | 327 | 7.8 | 12.2 | 0.00 | 0.00 | 0.00 | 67 | 1019.2 |
| 20260507131024 | 60 | 334 | 7.0 | 11.3 | 0.00 | 0.00 | 0.00 | 66 | 1019.1 |
| 20260507130020 | 60 | 329 | 7.8 | 14.8 | 0.00 | 0.00 | 0.00 | 63 | 1019.0 |
| 20260507125051 | 62 | 332 | 7.0 | 13.9 | 0.00 | 0.00 | 0.00 | 61 | 1018.9 |
| 20260507124023 | 59 | 307 | 2.6 | 7.8 | 0.00 | 0.00 | 0.00 | 63 | 1018.9 |
| 20260507123058 | 59 | 311 | 1.7 | 2.6 | 0.00 | 0.00 | 0.00 | 67 | 1018.7 |
| 20260507122104 | 57 | 139 | 1.7 | 5.2 | 0.00 | 0.00 | 0.00 | 70 | 1018.8 |
| 20260507121031 | 57 | 146 | 2.6 | 7.0 | 0.00 | 0.00 | 0.00 | 67 | 1018.7 |
| 20260507120032 | 56 | 169 | 3.5 | 8.7 | 0.00 | 0.00 | 0.00 | 73 | 1018.6 |
| 20260507115047 | 55 | 171 | 3.5 | 6.1 | 0.00 | 0.00 | 0.00 | 81 | 1018.8 |
| 20260507114032 | 54 | 170 | 2.6 | 6.1 | 0.00 | 0.00 | 0.00 | 83 | 1019.0 |
| 20260507113016 | 54 | 155 | 3.5 | 6.1 | 0.00 | 0.00 | 0.00 | 81 | 1019.1 |
| 20260507112024 | 54 | 145 | 3.5 | 5.2 | 0.00 | 0.00 | 0.00 | 80 | 1019.0 |
| 20260507111032 | 55 | 168 | 2.6 | 6.1 | 0.00 | 0.00 | 0.00 | 81 | 1019.2 |
| 20260507110033 | 55 | 153 | 2.6 | 6.1 | 0.00 | 0.00 | 0.00 | 76 | 1019.1 |
| 20260507105030 | 55 | 151 | 5.2 | 7.8 | 0.00 | 0.00 | 0.00 | 78 | 1019.1 |
| 20260507104024 | 56 | 153 | 4.3 | 6.1 | 0.00 | 0.00 | 0.00 | 73 | 1019.1 |
| 20260507103027 | 57 | 165 | 1.7 | 3.5 | 0.00 | 0.00 | 0.00 | 69 | 1019.1 |
| 20260507102032 | 57 | 93 | 0.9 | 1.7 | 0.00 | 0.00 | 0.00 | 66 | 1019.0 |
| 20260507101024 | 57 | 27 | 0.9 | 2.6 | 0.00 | 0.00 | 0.00 | 69 | 1019.0 |
| 20260507100023 | 56 | 48 | 0.9 | 2.6 | 0.00 | 0.00 | 0.00 | 71 | 1019.1 |
| 20260507095028 | 56 | 25 | 2.6 | 3.5 | 0.00 | 0.00 | 0.00 | 72 | 1019.1 |
| 20260507094023 | 57 | 343 | 3.5 | 7.0 | 0.00 | 0.00 | 0.00 | 68 | 1019.2 |
| 20260507093114 | 57 | 323 | 5.2 | 8.7 | 0.00 | 0.00 | 0.00 | 68 | 1019.1 |
| 20260507092020 | 58 | 335 | 3.5 | 11.3 | 0.00 | 0.00 | 0.00 | 67 | 1019.0 |
| 20260507091029 | 57 | 333 | 3.5 | 8.7 | 0.00 | 0.00 | 0.00 | 70 | 1019.1 |
| 20260507090023 | 55 | 327 | 4.3 | 7.8 | 0.00 | 0.00 | 0.00 | 72 | 1019.1 |
| 20260507085016 | 54 | 325 | 5.2 | 8.7 | 0.00 | 0.00 | 0.00 | 74 | 1019.1 |
| 20260507084053 | 54 | 324 | 6.1 | 9.6 | 0.00 | 0.00 | 0.00 | 74 | 1018.9 |
| 20260507083028 | 54 | 336 | 3.5 | 7.8 | 0.00 | 0.00 | 0.00 | 79 | 1019.0 |
| 20260507082023 | 55 | 336 | 3.5 | 9.6 | 0.00 | 0.00 | 0.00 | 77 | 1018.8 |
| 20260507081031 | 56 | 328 | 6.1 | 9.6 | 0.00 | 0.00 | 0.00 | 72 | 1018.7 |
| 20260507080030 | 56 | 328 | 5.2 | 11.3 | 0.00 | 0.00 | 0.00 | 71 | 1018.6 |
| 20260507075031 | 55 | 319 | 4.3 | 11.3 | 0.00 | 0.00 | 0.00 | 73 | 1018.5 |
| 20260507074023 | 55 | 357 | 2.6 | 6.1 | 0.00 | 0.00 | 0.00 | 72 | 1018.6 |
| 20260507073032 | 54 | 327 | 2.6 | 3.5 | 0.00 | 0.00 | 0.00 | 75 | 1018.6 |
| 20260507072032 | 54 | 336 | 1.7 | 2.6 | 0.00 | 0.00 | 0.00 | 75 | 1018.4 |
| 20260507071039 | 54 | 34 | 0.0 | 0.9 | 0.00 | 0.00 | 0.00 | 75 | 1018.4 |
| 20260507070021 | 53 | 354 | 0.9 | 2.6 | 0.00 | 0.00 | 0.00 | 75 | 1018.2 |
| 20260507065050 | 53 | 359 | 0.9 | 1.7 | 0.00 | 0.00 | 0.00 | 74 | 1018.2 |
| 20260507064023 | 52 | 331 | 0.9 | 0.9 | 0.00 | 0.00 | 0.00 | 77 | 1018.3 |
| 20260507063029 | 51 | 69 | 0.0 | 1.7 | 0.00 | 0.00 | 0.00 | 79 | 1018.3 |
| 20260507062028 | 52 | 21 | 0.9 | 1.7 | 0.00 | 0.00 | 0.00 | 77 | 1018.3 |
| 20260507061021 | 51 | 338 | 1.7 | 2.6 | 0.00 | 0.00 | 0.00 | 80 | 1018.2 |
| 20260507060041 | 51 | 314 | 0.9 | 1.7 | 0.00 | 0.00 | 0.00 | 80 | 1018.1 |
| 20260507055028 | 50 | 321 | 0.9 | 1.7 | 0.00 | 0.00 | 0.00 | 82 | 1018.1 |
| 20260507054044 | 50 | 325 | 1.7 | 1.7 | 0.00 | 0.00 | 0.00 | 82 | 1018.0 |
| 20260507053028 | 50 | 0.0 | 0.0 | 0.00 | 0.00 | 0.00 | 82 | 1017.8 | |
| 20260507052023 | 50 | 176 | 0.9 | 1.7 | 0.00 | 0.00 | 0.00 | 82 | 1017.7 |
| 20260507051031 | 49 | 0.0 | 0.0 | 0.00 | 0.00 | 0.00 | 83 | 1017.8 | |
| 20260507050052 | 49 | 324 | 0.0 | 0.9 | 0.00 | 0.00 | 0.00 | 83 | 1017.8 |
| 20260507045029 | 49 | 196 | 0.0 | 0.9 | 0.00 | 0.00 | 0.00 | 82 | 1017.7 |
| 20260507044044 | 49 | 158 | 0.9 | 1.7 | 0.00 | 0.00 | 0.00 | 83 | 1017.6 |
| 20260507043032 | 48 | 282 | 0.0 | 0.9 | 0.00 | 0.00 | 0.00 | 84 | 1017.4 |
| 20260507042033 | 47 | 212 | 0.9 | 1.7 | 0.00 | 0.00 | 0.00 | 85 | 1017.2 |
| 20260507041015 | 47 | 94 | 0.9 | 1.7 | 0.00 | 0.00 | 0.00 | 86 | 1017.2 |
| 20260507040022 | 48 | 196 | 0.9 | 0.9 | 0.00 | 0.00 | 0.00 | 85 | 1017.0 |
| 20260507035032 | 47 | 122 | 1.7 | 2.6 | 0.00 | 0.00 | 0.00 | 86 | 1017.0 |
| 20260507034021 | 47 | 2 | 0.9 | 0.9 | 0.00 | 0.00 | 0.00 | 85 | 1016.9 |
| 20260507033028 | 47 | 329 | 0.9 | 0.9 | 0.00 | 0.00 | 0.00 | 86 | 1016.8 |
| 20260507032052 | 48 | 329 | 0.0 | 0.9 | 0.00 | 0.00 | 0.00 | 84 | 1017.0 |
| 20260507031019 | 47 | 327 | 0.9 | 1.7 | 0.00 | 0.00 | 0.00 | 84 | 1016.9 |
| 20260507030021 | 47 | 329 | 0.0 | 1.7 | 0.00 | 0.00 | 0.00 | 84 | 1016.9 |
| 20260507025016 | 47 | 0.0 | 0.0 | 0.00 | 0.00 | 0.00 | 85 | 1016.8 | |
| 20260507024023 | 48 | 329 | 0.0 | 0.9 | 0.00 | 0.00 | 0.00 | 84 | 1016.7 |
| 20260507023032 | 48 | 0.0 | 0.0 | 0.00 | 0.00 | 0.00 | 83 | 1016.7 | |
| 20260507022032 | 48 | 0.0 | 0.0 | 0.00 | 0.00 | 0.00 | 83 | 1016.8 | |
| 20260507021019 | 48 | 331 | 0.9 | 1.7 | 0.00 | 0.00 | 0.00 | 83 | 1016.7 |
| 20260507020032 | 48 | 331 | 0.9 | 1.7 | 0.00 | 0.00 | 0.00 | 82 | 1016.6 |
| 20260507015039 | 48 | 329 | 0.9 | 1.7 | 0.00 | 0.00 | 0.00 | 81 | 1016.5 |
| 20260507014020 | 48 | 0.0 | 0.0 | 0.00 | 0.00 | 0.00 | 81 | 1016.4 | |
| 20260507013029 | 49 | 0.0 | 0.0 | 0.00 | 0.00 | 0.00 | 81 | 1016.4 | |
| 20260507012044 | 49 | 320 | 0.9 | 1.7 | 0.00 | 0.00 | 0.00 | 80 | 1016.4 |
| 20260507011019 | 48 | 0.0 | 0.0 | 0.00 | 0.00 | 0.00 | 81 | 1016.3 | |
| 20260507010021 | 49 | 319 | 0.0 | 0.9 | 0.00 | 0.00 | 0.00 | 81 | 1016.3 |
| 20260507005029 | 49 | 323 | 0.0 | 0.9 | 0.00 | 0.00 | 0.00 | 82 | 1016.3 |
| 20260507004023 | 49 | 39 | 0.0 | 1.7 | 0.00 | 0.00 | 0.00 | 82 | 1016.0 |
| 20260507003027 | 50 | 343 | 0.0 | 0.9 | 0.00 | 0.00 | 0.00 | 79 | 1015.9 |
| 20260507002032 | 50 | 71 | 0.0 | 0.9 | 0.00 | 0.00 | 0.00 | 79 | 1016.0 |
| 20260507001039 | 50 | 30 | 0.0 | 0.9 | 0.00 | 0.00 | 0.00 | 77 | 1016.0 |
| 20260507000022 | 51 | 318 | 0.0 | 1.7 | 0.00 | 0.00 | 0.00 | 75 | 1016.0 |
| 20260506235029 | 52 | 324 | 0.9 | 1.7 | 0.00 | 0.00 | 0.00 | 75 | 1015.9 |
| 20260506234023 | 51 | 340 | 0.9 | 1.7 | 0.00 | 0.00 | 0.00 | 76 | 1016.0 |
| 20260506233034 | 52 | 341 | 0.9 | 1.7 | 0.00 | 0.00 | 0.00 | 76 | 1016.0 |
| 20260506232032 | 52 | 342 | 0.0 | 0.9 | 0.00 | 0.00 | 0.00 | 76 | 1015.9 |
| 20260506231036 | 52 | 236 | 0.9 | 1.7 | 0.00 | 0.00 | 0.00 | 76 | 1016.0 |
| 20260506230040 | 52 | 87 | 0.9 | 1.7 | 0.00 | 0.00 | 0.00 | 75 | 1015.9 |
| 20260506225029 | 53 | 0.0 | 0.0 | 0.00 | 0.00 | 0.00 | 69 | 1015.9 | |
| 20260506224023 | 53 | 347 | 0.0 | 0.9 | 0.00 | 0.00 | 0.00 | 69 | 1015.7 |
| 20260506223031 | 54 | 347 | 0.0 | 0.9 | 0.00 | 0.00 | 0.00 | 69 | 1015.6 |
| 20260506222046 | 53 | 342 | 0.9 | 1.7 | 0.00 | 0.00 | 0.00 | 71 | 1015.7 |
| 20260506221029 | 53 | 24 | 0.0 | 0.9 | 0.00 | 0.00 | 0.00 | 73 | 1015.5 |
| 20260506220024 | 53 | 24 | 0.0 | 0.9 | 0.00 | 0.00 | 0.00 | 73 | 1015.3 |
| 20260506215016 | 54 | 64 | 0.9 | 1.7 | 0.00 | 0.00 | 0.00 | 70 | 1015.3 |
| 20260506214024 | 55 | 308 | 0.9 | 2.6 | 0.00 | 0.00 | 0.00 | 67 | 1015.2 |
| 20260506213031 | 55 | 324 | 2.6 | 3.5 | 0.00 | 0.00 | 0.00 | 68 | 1015.1 |
| 20260506212032 | 56 | 336 | 1.7 | 3.5 | 0.00 | 0.00 | 0.00 | 67 | 1015.1 |
| 20260506211018 | 56 | 334 | 3.5 | 6.1 | 0.00 | 0.00 | 0.00 | 66 | 1014.8 |
| 20260506210021 | 56 | 346 | 1.7 | 5.2 | 0.00 | 0.00 | 0.00 | 67 | 1014.8 |
| 20260506205019 | 57 | 333 | 4.3 | 11.3 | 0.00 | 0.00 | 0.00 | 65 | 1014.6 |
| 20260506204023 | 57 | 329 | 4.3 | 9.6 | 0.00 | 0.00 | 0.00 | 65 | 1014.5 |
| 20260506203048 | 57 | 330 | 3.5 | 7.0 | 0.00 | 0.00 | 0.00 | 66 | 1014.3 |
| 20260506202052 | 58 | 331 | 6.1 | 9.6 | 0.00 | 0.00 | 0.00 | 65 | 1014.2 |
| 20260506201029 | 58 | 329 | 6.1 | 7.8 | 0.00 | 0.00 | 0.00 | 66 | 1014.1 |
| 20260506200023 | 58 | 324 | 5.2 | 11.3 | 0.00 | 0.00 | 0.00 | 67 | 1013.8 |
| 20260506195032 | 58 | 321 | 4.3 | 7.0 | 0.00 | 0.00 | 0.00 | 66 | 1013.5 |
| 20260506194027 | 59 | 314 | 2.6 | 6.1 | 0.00 | 0.00 | 0.00 | 64 | 1013.2 |
| 20260506193031 | 59 | 303 | 2.6 | 3.5 | 0.00 | 0.00 | 0.00 | 63 | 1013.1 |
| 20260506192029 | 59 | 339 | 3.5 | 7.8 | 0.00 | 0.00 | 0.00 | 61 | 1012.9 |
| 20260506191029 | 59 | 327 | 5.2 | 9.6 | 0.00 | 0.00 | 0.00 | 60 | 1012.6 |
| 20260506190047 | 58 | 317 | 2.6 | 5.2 | 0.00 | 0.00 | 0.00 | 60 | 1012.4 |
| 20260506185026 | 59 | 359 | 1.7 | 2.6 | 0.00 | 0.00 | 0.00 | 57 | 1012.1 |
| 20260506184026 | 58 | 323 | 3.5 | 6.1 | 0.00 | 0.00 | 0.00 | 58 | 1011.7 |
| 20260506183028 | 59 | 315 | 1.7 | 2.6 | 0.00 | 0.00 | 0.00 | 58 | 1011.4 |
| 20260506182027 | 61 | 356 | 1.7 | 3.5 | 0.00 | 0.00 | 0.00 | 55 | 1011.4 |
| 20260506181029 | 62 | 183 | 0.9 | 3.5 | 0.00 | 0.00 | 0.00 | 51 | 1011.3 |
| 20260506180029 | 63 | 161 | 2.6 | 5.2 | 0.00 | 0.00 | 0.00 | 52 | 1011.2 |
| 20260506175019 | 63 | 160 | 3.5 | 7.0 | 0.00 | 0.00 | 0.00 | 51 | 1011.2 |
| 20260506174040 | 64 | 158 | 6.1 | 8.7 | 0.00 | 0.00 | 0.00 | 52 | 1011.1 |
| 20260506173029 | 64 | 155 | 6.1 | 8.7 | 0.00 | 0.00 | 0.00 | 50 | 1010.9 |
| 20260506172024 | 64 | 163 | 4.3 | 7.8 | 0.00 | 0.00 | 0.00 | 52 | 1010.9 |
| 20260506171028 | 64 | 167 | 5.2 | 11.3 | 0.00 | 0.00 | 0.00 | 51 | 1010.7 |
| 20260506170032 | 65 | 142 | 5.2 | 8.7 | 0.00 | 0.00 | 0.00 | 51 | 1010.4 |
| 20260506165016 | 66 | 155 | 7.0 | 11.3 | 0.00 | 0.00 | 0.00 | 46 | 1010.3 |
| 20260506164052 | 65 | 173 | 4.3 | 13.0 | 0.00 | 0.00 | 0.00 | 49 | 1010.3 |
| 20260506163016 | 66 | 170 | 6.1 | 11.3 | 0.00 | 0.00 | 0.00 | 48 | 1010.3 |
| 20260506162027 | 66 | 157 | 6.1 | 9.6 | 0.00 | 0.00 | 0.00 | 49 | 1010.6 |
| 20260506161021 | 65 | 173 | 7.8 | 13.0 | 0.00 | 0.00 | 0.00 | 50 | 1010.5 |
| 20260506160021 | 65 | 155 | 7.8 | 14.8 | 0.00 | 0.00 | 0.00 | 50 | 1010.5 |
| 20260506155208 | 65 | 157 | 9.6 | 14.8 | 0.00 | 0.00 | 0.00 | 50 | 1010.6 |
| 20260506154032 | 66 | 161 | 11.3 | 19.1 | 0.00 | 0.00 | 0.00 | 49 | 1010.7 |
| 20260506153032 | 67 | 148 | 8.7 | 14.8 | 0.00 | 0.00 | 0.00 | 46 | 1010.3 |